Location: Fort Wayne
(41.1310°N, 85.1290°W)
Time: 07:18:46
(UTC-04:00)

Cosmos 1000 Rocket - Visible Passes

Search period start: 25 July 2014 00:00
Search period end: 04 August 2014 00:00
Orbit: 955 x 991 km, 82.9° (Epoch: 24 July)

Date Brightness Start Highest point End Pass type
(mag) Time Alt. Az. Time Alt. Az. Time Alt. Az.
25 Jul 6.4 00:03:38 14° E 00:04:01 14° E 00:07:05 10° NE visible
25 Jul 4.4 01:48:15 82° WSW 01:48:26 83° W 01:54:47 10° N visible
25 Jul 6.6 03:32:52 11° W 03:34:47 12° WNW 03:37:18 10° NW visible
26 Jul 5.7 00:28:15 26° E 00:28:20 26° E 00:33:23 10° NNE visible
26 Jul 5.0 02:12:52 46° W 02:13:19 47° WNW 02:19:23 10° N visible
27 Jul 5.0 00:52:51 46° E 00:52:51 46° E 00:58:48 10° NNE visible
27 Jul 5.8 02:37:28 26° W 02:38:22 27° WNW 02:43:37 10° NNW visible
27 Jul 6.5 23:32:51 11° E 23:33:15 11° ENE 23:34:58 10° ENE visible
28 Jul 4.4 01:17:27 83° E 01:17:29 83° E 01:23:49 10° N visible
28 Jul 6.5 03:02:04 14° W 03:03:37 15° WNW 03:07:10 10° NNW visible
28 Jul 5.9 23:57:26 22° E 23:57:30 22° E 00:02:05 10° NE visible
29 Jul 4.8 01:42:03 56° W 01:42:18 57° W 01:48:31 10° N visible
30 Jul 5.2 00:22:00 38° E 00:22:00 38° E 00:27:42 10° NNE visible
30 Jul 5.6 02:06:37 32° W 02:07:17 32° WNW 02:12:54 10° N visible
31 Jul 4.5 00:46:34 69° E 00:46:34 69° E 00:52:49 10° NNE visible
31 Jul 6.3 02:31:11 18° W 02:32:29 19° WNW 02:36:45 10° NNW visible
31 Jul 6.1 23:26:31 18° E 23:26:41 18° E 23:30:40 10° NE visible
01 Aug 4.6 01:11:07 68° W 01:11:18 69° W 01:17:37 10° N visible
01 Aug 5.4 23:51:03 32° E 23:51:04 32° E 23:56:32 10° NNE visible
02 Aug 5.4 01:35:40 38° W 01:36:14 39° WNW 01:42:07 10° N visible
03 Aug 4.6 00:15:35 57° E 00:15:37 57° E 00:21:47 10° NNE visible
03 Aug 6.1 02:00:11 21° W 02:01:22 22° WNW 02:06:11 10° NNW visible
03 Aug 6.2 22:55:29 14° E 22:55:53 14° E 22:59:04 10° NE visible
